Flag for U.S.A. Weather past 2 weeks in Macon, Georgia, U.S.A.

Now
72 °F

Clear.


Feels Like: 68 °F
Forecast: 69 / 87 °F
Wind: No wind

Location: Middle Georgia Regional Airport

Current Time: Sep 1, 2015 at 12:24:38 AM

Latest Report: Aug 31, 2015 at 11:53 PM


Visibility: 10 mi

Pressure: 30.09 "Hg

Humidity: 93%

Dew point: 70 °F

Location of MaconLocation

Historic Weather in Macon — Graph

°F

Macon temperature yesterday

Maximum temperature yesterday: 85 °F (at 3:53 PM)
Minimum temperature yesterday: 71 °F (at 12:53 AM)
Average temperature yesterday: 76 °F

Past Weeks' High & Low Weather Summary

 TemperatureHumidityPressure
High93 °F (Aug 22, 4:53 PM)100% (Aug 18, 7:04 AM)30.18 "Hg (Aug 18, 7:04 AM)
Low58 °F (Aug 26, 6:53 AM)32% (Aug 25, 1:53 PM)29.86 "Hg (Aug 24, 6:53 PM)
Average77 °F81%30.01 "Hg
* Reported Aug 16 10:53 PM — Aug 31 10:53 PM, Macon, Weather by CustomWeather, © 2015

Note: Actual official high and low records may vary slightly from our data, if they occured in-between our weather recording intervals... More about our weather records

Advertising

Macon weather history for previous 24 hours

 ConditionsComfort  
Time TempWeatherWind HumidityBarometerVisibility
10:53 PM
Mon, Aug 31
73 °FClear.No wind94%30.09 "Hg10 mi
9:53 PM75 °FClear.No wind88%30.08 "Hg10 mi
8:53 PM75 °FSunny.3 mph88%30.05 "Hg10 mi
7:53 PM79 °FSunny.5 mph77%30.04 "Hg10 mi
6:53 PM83 °FPassing clouds.6 mph65%30.04 "Hg10 mi
5:53 PM85 °FSunny.No wind59%30.03 "Hg10 mi
4:53 PM85 °FScattered clouds.No wind57%30.04 "Hg10 mi
3:53 PM85 °FScattered clouds.6 mph59%30.05 "Hg10 mi
2:53 PM83 °FPartly sunny.3 mph63%30.08 "Hg10 mi
1:53 PM83 °FPartly sunny.N/A65%30.09 "Hg10 mi
12:53 PM81 °FScattered clouds.6 mph67%30.10 "Hg10 mi
11:53 AM79 °FPartly sunny.No wind74%30.11 "Hg10 mi
11:01 AM75 °FOvercast.No wind83%30.13 "Hg10 mi
9:53 AM72 °FLow clouds.7 mph91%30.09 "Hg10 mi
8:53 AM71 °FLow clouds.5 mph93%30.08 "Hg10 mi
7:53 AM71 °FLow clouds.5 mph93%30.07 "Hg10 mi
6:53 AM71 °FLow clouds.5 mph93%30.06 "Hg10 mi
5:53 AM71 °FLow clouds.5 mph93%30.05 "Hg10 mi
4:53 AM71 °FLow clouds.5 mph93%30.03 "Hg10 mi
3:53 AM71 °FLow clouds.No wind93%30.03 "Hg10 mi
2:53 AM72 °FOvercast.7 mph91%30.03 "Hg10 mi
1:53 AM72 °FOvercast.7 mph93%30.05 "Hg10 mi
12:53 AM71 °FLow clouds.3 mph96%30.05 "Hg10 mi
Weather by CustomWeather, © 2015

See weather overviewHow to use our weather pages